Location: Absdorf
(48.3167°N, 15.6167°E)
Time: 14:19:08
(UTC+00:00)

Daily predictions for brighter satellites

Satellite Brightness Start Highest point End
(mag) Time Altitude Azimuth Time Altitude Azimuth Time Altitude Azimuth
ATLAS 3B R/B 3.9 19:10:19 10° NW 19:16:59 37° NNE 19:23:54 10° E
MetOp-B 4.5 19:12:38 10° SE 19:17:49 53° ENE 19:23:01 10° N
Timation 2 Rocket 4.3 19:18:20 10° NNW 19:24:53 68° ENE 19:31:38 10° SE
Cosmos 1184 Rocket 2.8 19:28:37 10° S 19:31:33 49° E 19:34:29 10° NNE
Cosmos 1503 Rocket 4.2 19:28:44 10° S 19:33:49 51° ESE 19:39:00 10° NNE
Cosmos 1975 4.5 19:31:27 10° NNE 19:34:35 21° ENE 19:37:42 10° ESE
SL-16 R/B 3.9 19:32:20 10° SE 19:35:11 14° E 19:38:02 10° ENE
ERS-1 Rocket 3.9 19:32:51 10° SE 19:37:21 34° ENE 19:41:53 10° N
Cosmos 405 4.1 19:34:18 10° NNW 19:37:32 40° W 19:40:44 10° SSW
Cosmos 389 Rocket 2.5 19:34:49 10° NNW 19:38:20 86° W 19:41:51 10° S
Cosmos 1933 Rocket 3.6 19:36:18 10° N 19:40:48 85° E 19:45:15 10° S
EXPRESS MD2 4.2 19:36:58 10° WNW 19:43:07 46° SW 19:46:11 12° SE
CZ-4B R/B 1.7 19:41:24 10° N 19:44:35 64° WNW 19:47:42 10° SSW
Cosmos 1515 3.9 19:41:13 10° SSW 19:44:58 75° W 19:48:45 10° N
SPOT 1/Viking Rocket 3.8 19:41:03 10° S 19:46:13 73° WSW 19:51:23 10° NNW
Helios 1A Rocket 3.3 19:42:53 11° SE 19:46:36 46° ENE 19:50:28 10° N
Meteor 1-27 Rocket 3.9 19:41:57 10° SSW 19:47:45 85° W 19:53:41 10° N
Cosmos 2219 4.3 19:47:19 10° NW 19:52:31 39° WSW 19:57:39 10° S
Cosmos 2034 Rocket 4.1 19:46:22 10° S 19:52:35 66° E 19:58:53 10° NNE
Cosmos 2292 Rocket 4.0 19:50:37 10° NNE 19:53:14 26° ENE 19:55:05 14° SE
SJ 16-02 1.6 19:50:23 10° S 19:54:35 49° ESE 19:58:50 10° NNE
Cosmos 2278 4.0 19:49:47 10° S 19:55:07 45° ESE 20:00:30 10° NE
Cosmos 1340 3.0 19:51:39 10° SSW 19:55:20 66° WNW 19:59:06 10° N
Cosmos 2082 4.0 19:53:56 10° NNW 19:59:31 63° WSW 20:04:59 10° SSE
NOSS 2-1 (C) 4.4 19:59:39 16° SE 20:00:18 16° ESE 20:02:24 10° ENE
Cosmos 482 Debris 3.8 19:59:40 10° WNW 20:02:25 77° SSW 20:05:53 14° ESE
Cosmos 2263 Rocket 2.2 19:57:08 10° NNW 20:02:45 75° ENE 20:07:29 15° SE
Cosmos 1743 3.9 20:02:04 10° NNW 20:05:38 40° W 20:09:10 10° SSW
Ariane Rocket 3.7 20:01:12 10° S 20:06:08 52° W 20:11:07 10° NNW
NOSS 2-1 (D) 4.1 20:09:53 19° SE 20:10:43 20° ESE 20:13:10 10° ENE
SPOT 5 3.1 20:06:30 13° SSE 20:11:09 73° ENE 20:16:16 10° N
BREEZE-M DEB (TANK) 2.0 20:10:07 10° W 20:12:33 64° N 20:14:49 10° ENE
Terra 2.2 20:09:04 16° SE 20:12:45 51° ENE 20:17:23 10° N
Resurs 01 Rocket 3.3 20:11:11 10° SSW 20:15:02 30° W 20:18:56 10° NNW
Cosmos 1346 Rocket 3.7 20:15:00 18° SE 20:17:18 32° E 20:20:54 10° NNE
Aureole 1 Rocket 4.2 20:14:52 10° SW 20:17:41 30° WNW 20:20:24 10° N
Cosmos 2227 Rocket 4.2 20:15:58 10° NW 20:20:10 22° W 20:24:23 10° SSW
Cosmos 921 Rocket 4.0 20:17:16 10° NNW 20:21:35 44° WSW 20:25:38 11° S
Geosat FO 4.5 20:23:26 21° SSE 20:25:35 73° WSW 20:28:54 10° NNW
Cosmos 1980 Rocket 2.6 20:25:04 10° SW 20:30:40 68° WNW 20:36:22 10° NNE
Cosmos 1869 Rocket 4.0 20:26:21 10° NNW 20:30:48 62° W 20:34:33 14° S
SL-24 R/B - RUBIN 2 3.5 20:27:19 10° NW 20:31:44 85° NE 20:34:40 22° SE
Cosmos 2228 Rocket 3.2 20:29:09 10° SSW 20:33:43 81° W 20:38:18 10° N
Cosmos 1378 3.0 20:34:31 17° S 20:37:15 87° ESE 20:40:56 10° N
Cosmos 2322 Rocket 3.0 20:36:17 20° SSE 20:39:13 32° ESE 20:44:10 10° NE
Cosmos 2344 3.7 20:31:49 10° SW 20:39:15 76° NW 20:47:08 10° NE
Cosmos 1777 Rocket 4.0 20:34:31 10° SSW 20:39:45 88° WNW 20:45:02 10° NNE
Spot 2 Rocket 3.8 20:35:42 15° S 20:39:47 63° WSW 20:44:48 10° NNW
ISS -3.5 20:36:55 10° WNW 20:40:11 51° SSW 20:41:27 31° SSE
Cosmos 1844 Rocket 3.6 20:37:01 10° NNW 20:42:15 38° NE 20:46:18 16° ESE
ATLAS 2AS CENTAUR R/B 3.0 20:36:05 10° SW 20:43:55 89° SE 20:51:29 10° NE
Cosmos 2333 Rocket 4.0 20:43:20 13° ESE 20:44:23 13° E 20:46:54 10° ENE
Meteor 2-4 Rocket 3.7 20:40:21 13° S 20:45:32 80° E 20:51:12 10° NNE
Cosmos 1092 Rocket 4.2 20:40:56 10° NNW 20:47:06 71° W 20:52:05 16° S
RESURS DK-1 2.8 20:45:24 10° SW 20:49:29 62° WNW 20:53:36 10° NNE
SL-4 R/B 4.4 20:48:45 10° WSW 20:50:23 12° SW 20:51:58 10° SSW
Cosmos 1805 4.0 20:48:04 10° N 20:51:44 38° ENE 20:53:18 26° ESE
USA 267 4.2 20:46:31 10° E 20:52:43 48° NNE 20:58:56 10° WNW
Cosmos 1634 Rocket 4.0 20:49:58 13° S 20:55:32 88° W 21:01:45 10° N
ARIANE 5 R/B 2.7 20:53:39 24° S 20:56:19 77° WSW 21:00:50 10° NNW
Cosmos 1707 Rocket 3.6 20:54:13 19° SSW 20:57:25 83° W 21:01:51 10° N
ATLAS CENTAUR R/B 3.1 20:53:35 10° NNW 20:58:02 33° NE 21:01:51 12° E
Cosmos 44 Rocket 3.6 20:54:29 10° NW 20:59:05 53° WSW 21:01:28 26° S
Cosmos 2219 Rocket 3.9 21:03:06 14° ESE 21:03:59 14° E 21:06:48 10° ENE
Meteor 2-15 Rocket 4.4 21:00:05 21° S 21:04:15 71° E 21:10:18 10° NNE
Cosmos 1733 3.5 21:01:31 10° N 21:05:15 53° ENE 21:06:32 35° SE
Cosmos 1844 4.4 21:00:12 10° NNW 21:05:50 48° NE 21:09:35 20° ESE
Cosmos 1766 4.4 21:03:14 10° N 21:06:45 31° ENE 21:08:07 24° ESE
ATLAS 3B R/B 2.9 21:01:04 10° NW 21:08:26 81° SW 21:13:25 24° SSE
NOSS 2-1 (E) 2.6 21:08:10 26° SSW 21:09:49 76° SE 21:13:05 10° NE
CSL-04 DEB 4.3 21:06:43 10° NNE 21:10:42 86° ESE 21:12:49 27° SSW
Cosmos 1975 4.0 21:07:20 10° NNW 21:11:07 37° W 21:13:33 19° SSW
USA 81 4.3 21:09:01 17° SSW 21:13:03 67° W 21:18:19 10° N
Cosmos 1655 Rocket 4.3 21:09:41 10° N 21:15:48 54° ENE 21:19:14 26° SE
ERS-1 Rocket 4.1 21:12:32 16° SSW 21:16:06 36° W 21:20:46 10° NNW
SL-16 R/B 2.1 21:13:28 14° SSW 21:18:22 84° ESE 21:24:05 10° NNE
Meteor 1-4 Rocket 2.3 21:15:10 10° N 21:18:40 85° E 21:19:36 46° SSE
Cosmos 2237 4.3 21:16:27 24° S 21:19:55 61° ESE 21:25:35 10° NE
CZ-4C R/B 3.8 21:13:50 10° NW 21:20:19 43° NE 21:28:00 10° ESE
Gblst 52 Del rocket 4.5 21:18:34 10° SW 21:24:59 52° SE 21:30:39 10° ENE
Meteor 2-10 4.0 21:20:09 10° N 21:25:26 72° ENE 21:27:49 32° SSE
Cosmos 1733 Rocket 3.8 21:21:10 10° NNW 21:25:27 48° W 21:27:44 25° SSW
Cosmos 1782 Rocket 4.5 21:22:04 10° N 21:26:07 36° ENE 21:27:41 27° ESE
Geosat 4.1 21:28:35 32° S 21:30:53 65° WSW 21:35:55 10° NW
SAR-Lupe-4 4.0 21:28:11 10° N 21:31:45 58° WNW 21:33:22 29° SW
OE (NEXTSAT) 4.3 21:29:11 10° W 21:32:08 54° SSW 21:32:08 54° SSW
ERS-2 4.0 21:30:09 10° NE 21:32:29 17° E 21:32:29 17° E
SJ 16-02 3.8 21:30:03 10° WSW 21:33:25 21° NW 21:36:49 10° N
Meteor 1-15 Rocket 4.4 21:29:33 10° N 21:35:11 66° ENE 21:37:56 31° SSE
Cosmos 1356 3.3 21:35:10 53° SSW 21:35:51 79° WNW 21:39:09 10° N
COSMOS 2428 4.2 21:35:55 18° ESE 21:36:54 19° E 21:40:45 10° ENE
Cosmos 1908 Rocket 3.4 21:32:48 10° N 21:37:09 83° E 21:38:37 41° SSE
Cosmos 923 Rocket 4.0 21:34:28 10° NNW 21:39:49 77° WSW 21:42:10 34° S
Cosmos 1862 Rocket 4.3 21:37:31 21° SW 21:40:17 49° WNW 21:44:39 10° N
Cosmos 1470 3.9 21:39:21 10° N 21:42:49 30° ENE 21:43:46 27° E
Cosmos 2360 Rocket 2.2 21:40:43 31° S 21:43:25 64° ESE 21:49:02 10° NNE
Cosmos 1937 Rocket 3.8 21:42:39 35° SSE 21:44:25 50° ESE 21:49:32 10° NNE
Cosmos 1726 2.1 21:40:48 10° N 21:44:28 69° E 21:45:10 53° SE
Cosmos 2242 Rocket 3.9 21:43:56 39° SE 21:45:15 52° E 21:49:41 10° NNE
Cosmos 2263 Rocket 4.1 21:42:13 10° WNW 21:46:01 19° W 21:49:11 12° SW
ALOS 2 3.4 21:44:37 29° ESE 21:46:14 41° ENE 21:50:23 10° N
Meteor 1-13 Rocket 4.2 21:44:29 28° SSW 21:47:35 84° WNW 21:53:09 10° N
Cosmos 2266 Rocket 3.9 21:41:58 10° N 21:48:15 89° W 21:51:20 32° S
NOSS 2-1 (C) 4.3 21:47:18 10° WSW 21:50:20 36° NW 21:53:27 10° NNE
Terra 3.7 21:47:57 13° SW 21:50:48 21° W 21:54:27 10° NW
Cosmos 1441 Rocket 4.2 21:51:04 24° SW 21:52:46 39° WNW 21:56:17 10° N
USA 215 3.3 21:52:45 10° ENE 21:59:11 56° SE 22:03:43 20° SSW
ATLAS 5 CENTAUR R/B 4.5 21:39:27 10° WNW 22:00:09 59° NNE 22:05:18 10° ESE
Cosmos 2112 Rocket 4.0 21:55:04 10° NNW 22:00:25 79° WSW 22:02:27 39° S
Cosmos 990 Rocket 4.4 21:57:54 20° SW 22:01:27 63° WNW 22:06:40 10° NNE
Cosmos 1680 Rocket 3.6 21:56:11 10° NNW 22:01:27 67° WSW 22:03:25 38° S
Cosmos 2278 Rocket 3.9 21:57:10 10° NNW 22:02:00 28° NE 22:06:48 10° ESE
Cosmos 1626 4.3 22:03:15 15° E 22:03:25 15° E 22:05:32 10° NE
Cosmos 1842 3.3 22:03:47 54° SE 22:04:20 62° E 22:08:11 10° NNE
Meteor 1-22 Rocket 4.3 22:02:14 10° N 22:08:12 83° E 22:10:54 35° SSE
ADEOS Rocket 3.4 22:05:31 27° SE 22:08:24 53° ENE 22:14:16 10° N
Spot 4 3.8 22:07:13 42° S 22:08:51 78° WSW 22:13:40 10° NNW
Cosmos 1818 3.6 22:04:44 10° NW 22:10:10 70° WSW 22:12:08 40° SSE
Iridium 4 Rocket 3.5 22:07:24 10° N 22:11:56 63° W 22:13:44 37° SSW
Cosmos 1898 Rocket 3.7 22:11:50 27° SW 22:14:46 71° WNW 22:20:06 10° NNE
Sich 1 Rocket 4.3 22:11:01 10° N 22:15:13 42° ENE 22:16:32 33° ESE
Cosmos 858 Rocket 4.4 22:13:36 38° SSW 22:15:42 82° ESE 22:21:02 10° NNE
Cosmos 1674 4.1 22:16:06 24° E 22:16:18 24° E 22:19:23 10° NE
Cosmos 1900 4.3 22:15:19 31° SW 22:17:48 89° NW 22:22:58 10° NE
Okean 1-7 3.6 22:17:26 32° SW 22:19:05 51° WNW 22:23:22 10° N
Cosmos 1758 4.1 22:18:25 10° N 22:22:12 40° ENE 22:23:04 35° ESE
Cosmos 2322 Rocket 3.1 22:18:02 12° SW 22:23:06 47° NW 22:28:31 10° NNE
Cosmos 1844 Rocket 3.4 22:20:59 10° NW 22:26:10 40° WSW 22:27:57 32° SSW
Okean 3 3.9 22:25:02 38° SW 22:26:20 55° WNW 22:30:31 10° N
Cosmos 2322 3.8 22:25:29 39° S 22:27:26 60° ESE 22:33:05 10° NE
Cosmos 2333 Rocket 2.1 22:25:17 36° SSW 22:27:41 80° ESE 22:33:24 10° NNE
H-2A R/B 3.5 22:27:14 10° N 22:31:20 75° WNW 22:32:20 49° SW
SL-08 ROCKET BODY 4.3 22:26:23 10° N 22:32:19 85° E 22:34:42 38° SSE
Cosmos 1461 2.9 22:28:33 10° NW 22:32:43 76° NE 22:33:55 46° SE
BREEZE-M DEB (TANK) 4.4 22:31:02 10° W 22:31:52 16° WSW 22:31:52 16° WSW
USA 267 3.2 22:29:44 15° ESE 22:35:25 88° NE 22:42:01 10° NW
ATLAS 2AS CENTAUR R/B 4.4 22:28:46 10° W 22:35:46 36° NNW 22:42:29 10° NE
USA 229 DEB 4.2 22:28:53 10° NW 22:36:07 66° NE 22:43:19 12° SE
USA 229 4.2 22:28:59 10° NW 22:36:13 65° NE 22:43:27 12° SE
ATLAS CENTAUR R/B 1.9 22:32:20 10° NW 22:37:03 51° WSW 22:37:50 45° SSW
ASTEX 1 4.0 22:32:24 10° NNE 22:37:06 43° E 22:38:32 34° SE
NOSS 2-2 (E) 4.4 22:40:02 10° NW 22:44:58 72° NE 22:50:00 19° SE
Cosmos 1244 Rocket 4.5 22:39:06 10° N 22:45:28 90° WSW 22:48:12 37° S
Cosmos 1553 Rocket 4.1 22:43:37 36° SSE 22:46:07 62° E 22:52:14 10° NNE
Cosmos 1674 Rocket 4.3 22:46:04 34° ESE 22:46:53 38° E 22:50:54 10° NNE
Cosmos 2219 Rocket 2.1 22:44:47 38° SSW 22:47:03 86° ESE 22:52:41 10° NNE
Nadezhda 2 Rocket 4.4 22:42:06 10° N 22:48:17 84° W 22:50:51 38° S
Cosmos 2221 Rocket 3.7 22:51:06 49° SSE 22:52:00 63° E 22:56:23 10° NNE
Cosmos 372 Rocket 4.2 22:51:17 32° SW 22:53:36 62° WNW 22:58:45 10° NNE
Cosmos 494 Rocket 4.1 22:49:34 10° NNW 22:54:41 68° ENE 22:56:50 34° SE
Cosmos 1048 Rocket 4.0 22:49:55 10° NNW 22:55:06 74° ENE 22:57:08 37° SE
ATLAS 3B R/B 4.3 22:53:06 10° WNW 22:58:15 20° WSW 23:00:38 18° SW
Cosmos 1707 3.0 23:00:36 50° WSW 23:01:13 58° WNW 23:05:04 10° N
Cosmos 1378 Rocket 4.0 23:00:50 43° SE 23:01:48 52° E 23:06:08 10° NNE
NOSS 3-1 (A) 4.0 22:55:24 10° NW 23:02:49 83° SW 23:08:57 22° SSE
NOSS 0 Rocket 4.4 23:01:01 34° SSE 23:03:10 46° ESE 23:09:06 10° NE
SL-16 R/B 4.3 22:58:50 10° W 23:03:13 22° NW 23:07:38 10° N
USA 308 4.2 23:05:02 26° ESE 23:05:02 26° ESE 23:07:43 10° ENE
Cosmos 1125 Rocket 4.1 23:03:17 35° SE 23:04:40 43° ESE 23:09:35 10° NE
ERS-2 3.0 23:02:45 10° N 23:06:08 39° WNW 23:06:52 34° W
Okean 2 3.3 23:06:39 58° SSW 23:07:23 79° WNW 23:11:29 10° N
Cosmos 1300 4.2 23:04:33 10° N 23:07:55 29° ENE 23:09:06 24° ESE
CZ-4C R/B 3.0 23:02:12 10° NW 23:09:24 69° SW 23:14:17 27° SSE
NOSS 3-1 (C) 4.3 23:02:45 10° NW 23:10:01 53° WSW 23:14:02 31° S
USA 290 2.2 23:10:46 78° N 23:10:46 78° N 23:13:50 10° NNE
Cosmos 1238 Rocket 2.3 23:09:18 10° N 23:11:57 68° NNW 23:11:57 68° NNW
Gblst 52 Del rocket 4.4 23:10:27 10° W 23:16:42 74° NNW 23:22:20 10° ENE
Cosmos 2237 Rocket 2.9 23:14:56 32° SSE 23:16:44 42° ESE 23:22:04 10° NE
KORONAS-FOTON 3.9 23:16:49 54° WSW 23:17:19 61° W 23:21:07 10° N
SL-14 R/B 3.8 23:18:00 40° ESE 23:18:35 44° E 23:22:17 10° NNE
Cosmos 1470 4.3 23:15:35 10° NW 23:18:38 22° W 23:19:01 22° W
COSMOS 2428 2.7 23:17:53 34° SW 23:20:29 77° WNW 23:26:13 10° NNE
NOSS 2-2 (D) 4.2 23:15:59 10° NW 23:20:57 86° SW 23:25:34 22° SE
ERBS 4.3 23:23:11 17° E 23:23:11 17° E 23:24:14 10° ENE
Cosmos 1745 Rocket 3.9 23:15:53 10° N 23:22:09 87° E 23:25:01 34° S
PSLV R/B 3.6 23:18:03 10° NNE 23:22:26 81° WNW 23:23:40 48° SSW
ALOS 2 4.1 23:22:00 22° WSW 23:22:43 23° W 23:26:15 10° NW
Cosmos 2151 Rocket 3.7 23:18:42 10° NNW 23:23:03 59° W 23:23:57 47° SW
Resurs 1-4 Rocket 4.1 23:19:39 10° NE 23:23:07 17° E 23:25:56 12° SE
Cosmos 1242 Rocket 3.5 23:22:51 10° NNW 23:26:07 33° W 23:26:07 33° W
USA 305 3.1 23:26:44 49° SE 23:26:44 49° SE 23:30:46 10° ENE
Okean 2 Rocket 3.6 23:22:45 10° NNW 23:27:06 47° W 23:28:05 40° SW
Cosmos 2360 Rocket 3.9 23:23:08 10° WSW 23:27:54 27° NW 23:32:41 10° NNE
Cosmos 405 Rocket 2.5 23:28:20 68° SSW 23:28:46 86° W 23:32:35 10° N
Cosmos 1943 Rocket 3.6 23:25:31 10° NNW 23:30:44 35° NE 23:35:55 10° ESE
Cosmos 1437 Rocket 2.5 23:29:22 10° NNW 23:33:08 79° W 23:33:33 66° SSW
Nimbus 7 Rocket 4.5 23:27:35 10° NNE 23:33:28 71° WNW 23:36:12 33° SW
Cosmos 1908 3.6 23:30:53 10° NNW 23:34:31 45° W 23:34:48 44° WSW
Cosmos 2298 Rocket 4.0 23:34:33 40° SSW 23:36:29 81° ESE 23:41:49 10° NNE
Cosmos 1867 3.8 23:33:44 28° SW 23:36:40 68° NW 23:42:10 10° NE
ADEOS II 4.5 23:34:48 10° ENE 23:36:53 12° E 23:38:58 10° ESE
Cosmos 1626 2.7 23:37:36 40° W 23:38:06 43° WNW 23:41:38 10° N
Lacrosse 5 rocket 3.6 23:39:06 11° ESE 23:39:06 11° ESE 23:39:51 10° ESE
GP-B 3.7 23:36:06 10° NNE 23:40:25 48° E 23:42:03 32° SE
Thor Agena Rocket 4.3 23:36:24 10° NNE 23:41:27 43° E 23:43:43 28° SSE
USA 215 3.7 23:35:50 10° NE 23:42:17 63° NNW 23:48:44 10° WSW
Cosmos 1953 2.3 23:40:04 10° NNW 23:44:04 67° W 23:44:46 54° SSW
Cosmos 2278 Rocket 2.2 23:40:54 10° NNW 23:46:32 64° WSW 23:48:50 35° S
EO 1 Delta rocket 4.2 23:44:36 10° NNE 23:49:14 60° E 23:51:24 33° SSE
Cosmos 1674 4.1 23:50:45 24° W 23:51:35 26° WNW 23:54:49 10° NNW
ADEOS Rocket 4.1 23:52:27 22° WSW 23:54:20 27° W 23:59:18 10° NW
